עמוד ראשי
METAR-TAF:

METAR-TAF

שדות תעופה :

Shishmaref, אלסקה, ארצות הברית

קו רוחב: 66-16N, קו אורך: 166-03W, גובה: 2מטר

תצפית מזג אוויר נוכחית

הדו"ח נערך לפני 56דקות, בשעה 11:56 UTC
רוח 6קשר מכיוון מערב/דרום-מערב
טמפרטורת 14 צלסיוס
לחות 94%
לחץ 1010 hPa
ראות: 16.1קילומטר
מעט עננים בגובה 11000רגל

METAR: PASH 251156Z AUTO 25006KT 10SM FEW110 14/13 A2983 RMK AO2 SLP102 60000 T01440133 10194 20144 57007

זמן: 04:52 (12:52 UTC)


TAF: חסר

תצפיות ותחזיות מזג אוויר לגבי יותר מ- 4,000 שדות תעופה ברחבי העולם. דוחות METAR ו- TAF.

התחנות הזמינות מסומנות בנקודות צהובות ואדומות על גבי המפה.

העבר את העכבר לנקודה הצבעונית על מנת לראות את שם התחנה.

לאחר מכן, לחץ כדי לראות את תוכן ואת תחזיות מזג האוויר.

כדי לשנות את המפה: לחץ על הכפתורים הירוקים עם הפלוס השחור כדי להתקרב; על הכפתור הירוק עם המקף כדי להתרחק; או בחיצים הירוקים למפות סמוכות.


METAR-TAF: